STARLINK-1810 (46709 NORAD) Tracking and Keplerian Element Data

This shows tracking and keplerian element data for the satellite.

Feedback or suggestion? Click here.




ElementValue
Catalog46709
NameSTARLINK-1810
Epoch Orbit179
Epoch Day336.91667824
Epoch Year2020
RAAN253.3469
Inclination53.054
Eccentricity0.0001339
Argument of Perigee79.1577
Mean Anonmoly170.4236
Mean Motion15.22512408
Decay Rate-0.01058054
L11 46709U 20073AR 20336.91667824 -.01058054 00000-0 -49187-1 0 9990
L22 46709 53.0540 253.3469 0001339 79.1577 170.4236 15.22512408 1799

Live tracking and technical data element details for STARLINK-1810 (NORAD 46709). STARLINK-1810 can be tracked NOW for your location showing map with azimuth and elevation plus other details from your city location.

Track the satellite on the map from your city or location and see movement details for azimuth, elevation, latitude, longitude, range, height, and movement on the map or in text.







IsCatalogInMostPopularTable: catalog: 46709, numindb: 9
Update: records affected: 1



GetName: 46709 STARLINK-1810

Hit Count: updated at: Wed, 02 Dec 2020 18:44:01 GMT